Location: Bothwell
(41.7170°N, 112.2589°W)
Time: 01:50:33
(UTC+00:00)

Injun/Solrad 3 - All Passes

Search period start: 14 May 2026 00:00
Search period end: 24 May 2026 00:00
Orbit: 868 x 988 km, 66.8° (Epoch: 13 May)

Date Brightness Start Highest point End Pass type
(mag) Time Alt. Az. Time Alt. Az. Time Alt. Az.
14 May - 01:41:03 10° WNW 01:44:08 14° NNW 01:47:16 10° N daylight
14 May - 07:07:06 10° NNW 07:12:52 34° NE 07:18:39 10° ESE visible
14 May - 08:53:25 10° NW 08:59:36 50° WSW 09:05:45 10° S visible
14 May - 22:15:27 10° S 22:20:54 38° ESE 22:26:33 10° NE daylight
15 May - 00:01:43 10° WSW 00:07:21 39° NW 00:13:11 10° NNE daylight
15 May - 01:54:37 10° NW 01:55:48 11° NNW 01:57:00 10° NNW daylight
15 May - 05:33:17 10° N 05:35:56 13° NNE 05:38:36 10° NE visible
15 May - 07:17:56 10° NNW 07:24:08 47° NE 07:30:19 10° SE visible
15 May - 09:04:48 10° NW 09:10:26 33° WSW 09:16:04 10° S visible
15 May - 22:25:54 10° SSW 22:31:46 58° ESE 22:37:51 10° NE daylight
16 May - 00:13:30 10° WSW 00:18:40 28° NW 00:23:58 10° NNE daylight
16 May - 05:43:34 10° N 05:47:33 17° NE 05:51:32 10° ENE visible
16 May - 07:28:51 10° NNW 07:35:17 68° ENE 07:41:42 10° SE visible
16 May - 09:16:29 10° WNW 09:21:12 22° WSW 09:25:53 10° SSW visible
16 May - 20:54:37 10° SE 20:57:15 13° E 20:59:55 10° ENE daylight
16 May - 22:36:42 10° SSW 22:42:43 87° ESE 22:48:59 10° NNE daylight
17 May - 00:25:37 10° W 00:30:05 21° NW 00:34:40 10° N daylight
17 May - 05:54:08 10° N 05:59:03 22° NE 06:03:58 10° E visible
17 May - 07:39:52 10° NNW 07:46:20 84° WSW 07:52:46 10° SSE visible
17 May - 09:28:55 10° WNW 09:31:52 14° W 09:34:49 10° SW visible
17 May - 21:03:31 10° SSE 21:07:54 21° ESE 21:12:23 10° ENE daylight
17 May - 22:47:48 10° SW 22:53:47 64° WNW 23:00:01 10° NNE daylight
18 May - 00:38:06 10° WNW 00:41:36 15° NW 00:45:11 10° N daylight
18 May - 06:04:50 10° NNW 06:10:26 30° NE 06:16:02 10° ESE visible
18 May - 07:51:01 10° NW 07:57:18 57° WSW 08:03:34 10° S visible
18 May - 21:13:22 10° S 21:18:38 33° ESE 21:24:05 10° NE daylight
18 May - 22:59:11 10° WSW 23:04:57 44° NW 23:10:55 10° NNE daylight
19 May - 00:51:11 10° NW 00:53:14 12° NNW 00:55:19 10° N daylight
19 May - 04:31:19 10° N 04:33:23 11° NNE 04:35:27 10° NE visible
19 May - 06:15:39 10° NNW 06:21:44 42° NE 06:27:48 10° ESE visible
19 May - 08:02:19 10° NW 08:08:11 38° WSW 08:14:01 10° S visible
19 May - 21:23:41 10° S 21:29:28 51° ESE 21:35:27 10° NE daylight
19 May - 23:10:51 10° WSW 23:16:13 31° NW 23:21:44 10° NNE daylight
20 May - 04:41:25 10° N 04:45:02 15° NE 04:48:38 10° ENE visible
20 May - 06:26:32 10° NNW 06:32:55 60° NE 06:39:17 10° SE visible
20 May - 08:13:53 10° NW 08:18:57 25° WSW 08:24:01 10° SSW visible
20 May - 19:53:35 10° ESE 19:55:03 11° E 19:56:30 10° E daylight
20 May - 21:34:22 10° SSW 21:40:23 77° ESE 21:46:39 10° NNE daylight
20 May - 23:22:51 10° W 23:27:36 23° NW 23:32:28 10° N daylight
21 May - 04:51:55 10° N 04:56:34 20° NE 05:01:13 10° E visible
21 May - 06:37:31 10° NNW 06:44:00 86° ENE 06:50:27 10° SSE visible
21 May - 08:25:59 10° WNW 08:29:40 16° WSW 08:33:20 10° SW visible
21 May - 20:01:42 10° SE 20:05:40 18° ESE 20:09:42 10° ENE daylight
21 May - 21:45:23 10° SW 21:51:25 73° WNW 21:57:41 10° NNE daylight
21 May - 23:35:12 10° WNW 23:39:05 17° NW 23:43:03 10° N daylight
22 May - 05:02:36 10° NNW 05:08:00 27° NE 05:13:24 10° ESE visible
22 May - 06:48:37 10° NW 06:55:00 65° WSW 07:01:20 10° SSE visible
22 May - 20:11:19 10° SSE 20:16:22 29° ESE 20:21:35 10° NE daylight
22 May - 21:56:40 10° SW 22:02:32 50° NW 22:08:38 10° NNE daylight
22 May - 23:48:01 10° NW 23:50:41 13° NNW 23:53:23 10° N daylight
23 May - 03:29:35 10° NNE 03:30:49 11° NNE 03:32:03 10° NE visible
23 May - 05:13:22 10° NNW 05:19:20 38° NE 05:25:16 10° ESE visible
23 May - 06:59:52 10° NW 07:05:55 43° WSW 07:11:54 10° S visible
23 May - 20:21:30 10° S 20:27:10 44° ESE 20:33:03 10° NE daylight
23 May - 22:08:15 10° WSW 22:13:47 35° NW 22:19:29 10° NNE daylight
